Clermont County, Batavia, OH

3:45 PM EST on December 06, 2019 (GMT -0500)
Clermont County, Batavia

Weather History for KI69 - October, 2019

Change the Weather History Date:

Thursday, October 24, 2019

  Actual Average (KLUK) Record (KLUK)
Temperature  
Mean Temperature 56 °F -  
Max Temperature 69 °F 64 °F 83 °F (1963)
Min Temperature 42 °F 44 °F 23 °F (1981)
Degree Days  
Heating Degree Days 10    
Growing Degree Days 6 (Base 50)    
Moisture  
Dew Point 39 °F    
Average Humidity 55    
Maximum Humidity 79    
Minimum Humidity 37    
Precipitation  
Precipitation 0.00 in - - ()
Sea Level Pressure  
Sea Level Pressure 30.23 in    
Wind  
Wind Speed 4 mph (WSW)    
Max Wind Speed 12 mph    
Max Gust Speed 17 mph    
Visibility 10 miles    
Events      
Averages and records for this station are not official NWS values.
T = Trace of Precipitation, MM = Missing Value Source: NWS Daily Summary

Daily Weather History Graph

Daily Weather History Graph

Search for Another Location

Airport or City:

Astronomy

Oct. 24, 2019 Rise Set
Actual Time 7:55 AM EDT 6:46 PM EDT
Civil Twilight 7:28 AM EDT 7:13 PM EDT
Nautical Twilight 6:56 AM EDT 7:44 PM EDT
Astronomical Twilight 6:25 AM EDT 8:15 PM EDT
Moon 3:27 AM EDT (10/24) 5:10 PM EDT (10/24)
Length of Visible Light 11h 45m
Length of Day
10h 50m
Waning Crescent, 17% of the Moon is Illuminated
Oct 24
Waning Crescent
Oct 27
New
Nov 4
First Quarter
Nov 12
Full
Nov 19
Last Quarter

Hourly Weather History & Observations

Time (EDT) Temp. Windchill Dew Point Humidity Pressure Visibility Wind Dir Wind Speed Gust Speed Precip Events Conditions
12:19 AM 53.2 °F - 32.7 °F 46% 30.16 in 10.0 mi South 5.8 mph - N/A   Clear
12:37 AM 53.1 °F - 32.5 °F 46% 30.16 in 10.0 mi South 8.1 mph - N/A   Clear
12:55 AM 52.7 °F - 32.9 °F 47% 30.16 in 10.0 mi South 6.9 mph - N/A   Clear
1:15 AM 52.0 °F - 32.9 °F 48% 30.17 in 10.0 mi SSW 4.6 mph - N/A   Clear
1:35 AM 51.3 °F - 32.9 °F 50% 30.18 in 10.0 mi Calm Calm - N/A   Clear
1:59 AM 50.2 °F - 33.3 °F 52% 30.19 in 10.0 mi Calm Calm - N/A   Clear
2:17 AM 47.1 °F - 33.8 °F 60% 30.20 in 10.0 mi Calm Calm - N/A   Clear
2:35 AM 47.5 °F - 33.8 °F 59% 30.20 in 10.0 mi Calm Calm - N/A   Clear
2:55 AM 46.8 °F - 33.8 °F 61% 30.20 in 10.0 mi Calm Calm - N/A   Clear
3:15 AM 45.9 °F - 34.3 °F 64% 30.20 in 10.0 mi Calm Calm - N/A   Clear
3:39 AM 44.1 °F - 35.4 °F 72% 30.20 in 10.0 mi Calm Calm - N/A   Clear
3:57 AM 42.6 °F - 35.1 °F 75% 30.20 in 10.0 mi Calm Calm - N/A   Clear
4:15 AM 44.4 °F - 34.7 °F 69% 30.20 in 10.0 mi Calm Calm - N/A   Clear
4:36 AM 43.9 °F - 34.7 °F 70% 30.20 in 10.0 mi Calm Calm - N/A   Clear
4:55 AM 42.6 °F - 35.2 °F 75% 30.20 in 10.0 mi Calm Calm - N/A   Clear
5:19 AM 42.8 °F - 35.2 °F 75% 30.21 in 10.0 mi Calm Calm - N/A   Mostly Cloudy
5:37 AM 43.7 °F 42.1 °F 34.7 °F 71% 30.21 in 10.0 mi South 3.5 mph - N/A   Scattered Clouds
5:55 AM 46.0 °F - 34.2 °F 63% 30.21 in 10.0 mi Calm Calm - N/A   Scattered Clouds
6:15 AM 46.0 °F - 34.0 °F 63% 30.22 in 10.0 mi Calm Calm - N/A   Clear
6:35 AM 46.6 °F - 34.0 °F 62% 30.22 in 10.0 mi South 3.5 mph - N/A   Clear
6:59 AM 46.4 °F 44.3 °F 34.0 °F 62% 30.21 in 10.0 mi South 4.6 mph - N/A   Clear
7:17 AM 47.5 °F - 33.8 °F 59% 30.22 in 10.0 mi Calm Calm - N/A   Clear
7:55 AM 42.3 °F - 35.4 °F 77% 30.23 in 10.0 mi Calm Calm - N/A   Scattered Clouds
8:15 AM 43.3 °F - 35.1 °F 73% 30.23 in 10.0 mi Calm Calm - N/A   Clear
8:39 AM 46.9 °F - 34.7 °F 62% 30.23 in 10.0 mi South 4.6 mph - N/A   Clear
8:57 AM 49.5 °F - 34.7 °F 57% 30.24 in 10.0 mi SSW 6.9 mph - N/A   Clear
9:15 AM 51.8 °F - 34.5 °F 52% 30.25 in 10.0 mi SSW 5.8 mph - N/A   Clear
9:35 AM 53.2 °F - 34.3 °F 49% 30.26 in 10.0 mi SSW 9.2 mph - N/A   Clear
9:55 AM 54.9 °F - 34.5 °F 46% 30.26 in 10.0 mi SW 9.2 mph - N/A   Clear
10:19 AM 56.1 °F - 34.9 °F 45% 30.26 in 10.0 mi SW 10.4 mph - N/A   Clear
10:37 AM 57.6 °F - 35.6 °F 44% 30.27 in 10.0 mi SW 10.4 mph 16.1 mph N/A   Clear
10:55 AM 58.6 °F - 36.1 °F 43% 30.27 in 10.0 mi SW 11.5 mph - N/A   Clear
11:15 AM 59.7 °F - 36.9 °F 43% 30.27 in 10.0 mi SSW 8.1 mph - N/A   Clear
11:35 AM 61.0 °F - 37.4 °F 42% 30.27 in 10.0 mi SW 10.4 mph 17.3 mph N/A   Clear
11:58 AM 62.1 °F - 37.9 °F 41% 30.27 in 10.0 mi SW 9.2 mph - N/A   Clear
12:17 PM 63.5 °F - 39.4 °F 41% 30.26 in 10.0 mi WSW 9.2 mph - N/A   Clear
12:35 PM 64.8 °F - 39.4 °F 39% 30.26 in 10.0 mi SW 9.2 mph - N/A   Clear
12:55 PM 65.5 °F - 40.6 °F 40% 30.26 in 10.0 mi WSW 8.1 mph - N/A   Clear
1:15 PM 66.0 °F - 40.8 °F 40% 30.25 in 10.0 mi SW 9.2 mph - N/A   Clear
2:35 PM 67.8 °F - 41.5 °F 38% 30.22 in 10.0 mi WSW 4.6 mph - N/A   Clear
2:55 PM 68.4 °F - 42.1 °F 38% 30.22 in 10.0 mi SW 5.8 mph - N/A   Clear
3:18 PM 68.2 °F - 41.4 °F 38% 30.22 in 10.0 mi SSW 3.5 mph - N/A   Clear
3:36 PM 68.2 °F - 41.9 °F 38% 30.21 in 10.0 mi West 4.6 mph - N/A   Clear
3:55 PM 68.9 °F - 42.4 °F 38% 30.22 in 10.0 mi WSW 6.9 mph - N/A   Clear
4:15 PM 69.3 °F - 42.1 °F 37% 30.21 in 10.0 mi SSW 4.6 mph - N/A   Clear
4:35 PM 67.6 °F - 41.7 °F 39% 30.22 in 10.0 mi WNW 5.8 mph - N/A   Clear
4:58 PM 68.0 °F - 41.5 °F 38% 30.22 in 10.0 mi WNW 3.5 mph - N/A   Scattered Clouds
5:16 PM 67.6 °F - 42.8 °F 41% 30.21 in 10.0 mi WNW 3.5 mph - N/A   Scattered Clouds
5:35 PM 66.4 °F - 42.4 °F 42% 30.21 in 10.0 mi NW 3.5 mph - N/A   Clear
5:55 PM 65.5 °F - 43.0 °F 44% 30.21 in 10.0 mi NNW 4.6 mph - N/A   Clear
6:15 PM 65.8 °F - 43.0 °F 43% 30.21 in 10.0 mi NNW 3.5 mph - N/A   Clear
6:38 PM 65.1 °F - 42.8 °F 44% 30.22 in 10.0 mi Calm Calm - N/A   Clear
6:56 PM 63.5 °F - 43.3 °F 48% 30.23 in 10.0 mi Calm Calm - N/A   Scattered Clouds
7:16 PM 62.8 °F - 42.8 °F 48% 30.23 in 10.0 mi North 3.5 mph - N/A   Scattered Clouds
7:35 PM 61.7 °F - 43.7 °F 52% 30.24 in 10.0 mi North 4.6 mph - N/A   Scattered Clouds
7:55 PM 60.4 °F - 43.9 °F 54% 30.24 in 10.0 mi North 6.9 mph - N/A   Scattered Clouds
8:18 PM 59.4 °F - 44.1 °F 57% 30.26 in 10.0 mi North 4.6 mph - N/A   Scattered Clouds
8:36 PM 58.5 °F - 44.1 °F 59% 30.26 in 10.0 mi North 3.5 mph - N/A   Clear
8:55 PM 57.6 °F - 44.1 °F 61% 30.26 in 10.0 mi NNW 3.5 mph - N/A   Clear
9:16 PM 57.2 °F - 44.1 °F 62% 30.27 in 10.0 mi NNW 3.5 mph - N/A   Clear
9:35 PM 56.5 °F - 44.1 °F 63% 30.27 in 10.0 mi Calm Calm - N/A   Scattered Clouds
9:58 PM 55.6 °F - 44.4 °F 66% 30.28 in 10.0 mi Calm Calm - N/A   Scattered Clouds
10:16 PM 53.6 °F - 45.1 °F 73% 30.28 in 10.0 mi Calm Calm - N/A   Clear
10:35 PM 53.2 °F - 45.1 °F 74% 30.27 in 10.0 mi Calm Calm - N/A   Clear
10:55 PM 52.0 °F - 45.5 °F 79% 30.28 in 10.0 mi Calm Calm - N/A   Clear
11:15 PM 52.2 °F - 45.5 °F 78% 30.28 in 10.0 mi Calm Calm - N/A   Clear
11:38 PM 52.0 °F - 45.5 °F 79% 30.28 in 10.0 mi Calm Calm - N/A   Clear
11:56 PM 52.7 °F - 45.0 °F 75% 30.28 in 10.0 mi Calm Calm - N/A   Clear